Location: Pl�tzky
(52.0521°N, 11.8020°E)
Time: 08:28:01
(UTC+00:00)

COSMOS 2455 - Pass Details

Date: 22 November 2019
Orbit: 902 x 908 km, 67.1° (Epoch: 15 December)

Event Time Altitude Azimuth Distance (km) Brightness Sun altitude
Rises 16:34:49 0° 154° (SSE) 3,522 5.8 -12.2°
Reaches altitude 10° 16:38:40 10° 130° (SE) 2,588 4.9 -12.8°
Enters shadow 16:41:22 14° 103° (ESE) 2,336 4.5 -13.2°
